Date,TemperatureHighF,TemperatureAvgF,TemperatureLowF,DewpointHighF,DewpointAvgF,DewpointLowF,HumidityHigh,HumidityAvg,HumidityLow,PressureMaxIn,PressureMinIn,WindSpeedMaxMPH,WindSpeedAvgMPH,GustSpeedMaxMPH,PrecipitationSumIn
2012-5-7,56,55,54,44,41,37,71,60,49,30.08,30.07,1,0,5,0.00
2012-5-8,54,51,47,53,48,44,98,90,71,30.09,29.85,1,0,5,0.48
2012-5-9,63,59,54,61,58,53,99,97,88,29.85,29.58,7,0,7,0.35
2012-5-10,64,56,47,59,51,43,99,84,59,29.66,29.35,3,0,13,0.71
2012-5-11,64,51,39,46,39,33,98,68,37,30.04,29.67,6,0,16,0.00
2012-5-12,78,63,37,52,41,28,95,52,20,30.13,30.01,12,1,12,0.00
2012-5-13,84,68,48,59,51,45,96,60,26,30.15,30.01,9,1,9,0.00
2012-5-14,68,59,55,60,54,49,97,84,66,30.18,30.09,8,0,8,0.08
2012-5-15,72,62,55,61,58,53,99,89,54,30.15,29.95,12,1,12,0.36
2012-5-16,72,64,59,67,62,59,99,94,80,29.95,29.77,7,0,7,0.11
2012-5-17,68,58,45,61,46,34,98,68,32,30.15,29.85,12,2,12,0.09
2012-5-18,74,56,39,49,42,37,98,65,30,30.26,30.14,10,1,10,0.00
2012-5-19,80,61,42,52,47,41,98,65,30,30.19,30.08,8,1,8,0.00
2012-5-20,84,65,48,58,50,46,97,65,30,30.29,30.16,8,1,8,0.00
2012-5-21,73,59,46,63,54,44,97,84,63,30.29,30.08,9,1,9,0.00
2012-5-22,64,61,58,63,60,57,99,97,93,30.08,29.84,7,0,7,0.51
2012-5-23,76,66,61,66,63,60,99,88,67,30.05,29.84,4,0,4,0.01
2012-5-24,78,66,56,67,61,55,99,85,57,30.25,30.05,12,1,12,0.00
2012-5-25,75,65,60,68,62,58,98,91,78,30.26,30.08,7,0,7,0.00
2012-5-26,85,72,58,73,64,48,99,80,33,30.10,30.00,6,0,6,0.00
2012-5-27,80,66,53,59,54,50,98,70,43,30.18,30.01,12,1,12,0.00
2012-5-28,79,66,56,62,56,53,90,72,53,30.03,29.91,3,0,10,0.00
2012-5-29,72,62,59,66,60,54,97,91,79,29.95,29.72,2,0,9,0.05
2012-5-30,74,66,60,67,63,59,99,91,69,29.74,29.68,1,0,4,0.02
2012-5-31,81,68,58,62,56,49,98,68,33,29.92,29.70,3,0,7,0.00
2012-6-1,72,62,54,54,47,42,89,60,36,30.08,29.92,3,0,12,0.00
2012-6-2,59,56,52,58,54,47,98,91,72,30.02,29.69,6,1,15,1.26
2012-6-3,60,57,52,58,55,50,98,92,77,29.71,29.66,2,0,9,0.07
2012-6-4,52,51,49,51,49,48,98,95,92,29.82,29.64,5,0,17,0.44
2012-6-5,58,52,47,53,50,46,99,93,78,29.95,29.79,1,0,5,0.12
2012-6-6,64,55,48,56,52,47,99,88,64,29.99,29.93,2,0,8,0.03
2012-6-7,66,57,49,60,54,48,98,90,69,29.98,29.90,3,0,10,0.11
2012-6-8,78,62,52,63,57,52,99,86,51,29.94,29.73,1,0,8,0.09
2012-6-9,78,64,51,60,54,49,99,74,38,29.94,29.77,1,0,8,0.01
2012-6-10,82,65,50,58,51,46,99,66,29,30.21,29.94,2,0,8,0.00
2012-6-11,77,64,51,62,56,50,96,77,52,30.29,30.18,2,0,8,0.00
2012-6-12,77,67,59,64,59,53,90,77,61,30.19,29.95,2,0,10,0.01
2012-6-13,68,64,61,66,63,60,98,97,91,30.07,29.90,1,0,9,0.94
2012-6-14,77,66,54,61,57,52,99,76,46,30.27,30.07,3,0,12,0.00
2012-6-15,75,62,48,60,52,47,98,75,46,30.33,30.26,3,0,9,0.00
2012-6-16,68,58,48,58,52,47,98,83,64,30.37,30.29,5,0,13,0.00
2012-6-17,71,55,44,55,49,43,98,82,55,30.30,30.12,3,0,8,0.00
2012-6-18,70,58,47,57,52,46,97,83,55,30.17,30.10,2,0,6,0.00
2012-6-19,76,63,50,66,59,49,99,86,68,30.15,29.99,2,0,12,0.00
2012-6-20,95,77,62,79,70,61,98,80,51,30.00,29.83,2,0,8,0.00
2012-6-21,94,80,68,76,71,66,98,77,47,29.85,29.70,3,0,8,0.00
2012-6-22,94,78,66,74,69,65,98,78,43,29.75,29.66,2,0,7,0.06
2012-6-23,85,71,60,69,64,58,98,81,44,29.91,29.75,3,0,10,0.00
2012-6-24,85,69,55,64,57,50,99,69,30,29.93,29.84,2,0,8,0.00
2012-6-25,72,66,62,67,62,59,98,90,80,29.83,29.62,1,0,8,0.83
2012-6-26,71,62,56,61,57,53,97,85,68,29.63,29.53,3,0,10,0.01
2012-6-27,73,64,56,62,57,53,96,80,60,29.71,29.53,2,0,9,0.02
2012-6-28,84,69,57,66,60,55,94,74,45,29.73,29.67,2,0,8,0.00
2012-6-29,88,70,58,77,64,56,99,82,45,29.70,29.49,2,0,10,0.26
2012-6-30,86,72,56,67,61,55,98,72,38,29.71,29.60,3,0,12,0.00
2012-7-1,92,77,62,69,63,57,95,66,32,29.82,29.70,5,0,13,0.00
2012-7-2,85,73,63,66,63,59,93,72,43,29.87,29.81,3,0,10,0.00
2012-7-3,86,72,59,64,59,52,95,67,33,29.91,29.83,5,0,9,0.00
2012-7-4,89,74,63,75,68,60,96,82,54,29.83,29.65,5,0,10,0.24
2012-7-5,85,75,65,69,66,63,95,74,52,29.85,29.66,3,0,9,0.00
2012-7-6,89,74,60,73,66,59,96,78,46,29.91,29.80,2,0,5,0.00
2012-7-7,81,74,66,75,70,64,94,87,71,29.80,29.70,1,0,5,0.01
2012-7-8,87,73,59,67,60,53,97,68,36,29.86,29.76,3,0,10,0.00
2012-7-9,82,68,53,59,54,49,96,64,34,29.98,29.86,2,0,8,0.00
2012-7-10,84,66,49,62,54,48,97,69,30,30.06,29.98,2,0,6,0.00
2012-7-11,88,70,54,63,57,52,98,68,32,30.17,30.06,3,0,7,0.00
2012-7-12,91,74,59,67,63,57,98,72,40,30.17,30.06,2,0,6,0.00
2012-7-13,91,75,61,74,67,59,96,76,52,30.16,30.07,1,0,7,0.00
2012-7-14,93,76,66,72,67,61,95,77,36,30.12,30.02,2,0,5,0.00
2012-7-15,88,76,63,73,68,62,97,80,50,30.07,29.84,2,0,5,0.02
2012-7-16,90,77,68,75,71,67,98,83,51,29.84,29.71,2,0,9,0.02
2012-7-17,92,79,66,75,70,65,98,76,53,29.76,29.60,3,0,9,0.00
2012-7-18,87,78,72,75,71,61,92,79,61,29.89,29.65,2,0,5,0.00
2012-7-19,84,72,63,62,57,53,84,62,40,30.01,29.88,3,0,7,0.00
2012-7-20,74,66,57,62,57,54,93,74,52,30.08,30.01,2,0,7,0.00
2012-7-21,84,66,50,62,54,48,98,70,37,30.10,30.04,3,0,9,0.00
2012-7-22,85,70,53,66,60,51,98,72,45,30.11,30.02,3,0,8,0.00
2012-7-23,86,74,64,72,67,60,97,81,59,30.06,29.73,2,0,9,0.03
2012-7-24,88,75,66,73,67,56,96,78,47,29.74,29.49,2,0,9,0.09
2012-7-25,82,70,59,61,56,52,88,63,38,29.80,29.68,3,0,10,0.00
2012-7-26,80,70,61,70,64,56,94,82,67,29.77,29.57,1,0,5,0.01
2012-7-27,73,69,66,70,67,64,97,94,88,29.89,29.59,1,0,5,0.35
2012-7-28,80,70,64,71,66,63,98,90,64,29.98,29.88,5,0,10,0.11
2012-7-29,74,67,60,67,64,59,98,90,73,30.06,29.92,3,0,9,0.01
2012-7-30,85,69,56,69,62,55,98,80,47,30.11,30.02,2,0,10,0.00
2012-7-31,80,69,58,66,63,57,98,82,49,30.09,29.89,3,0,10,0.02
2012-8-1,82,72,66,73,68,65,97,89,64,29.90,29.81,2,0,9,0.08
2012-8-2,88,76,67,74,70,66,98,83,57,29.86,29.78,2,0,6,0.00
2012-8-3,92,77,65,73,68,63,98,76,41,30.05,29.86,3,0,8,0.00
2012-8-4,91,75,66,74,69,65,97,83,55,30.21,30.06,3,0,10,0.11
2012-8-5,88,74,64,78,71,63,98,90,64,30.20,29.89,3,0,12,0.34
2012-8-6,80,73,61,73,65,59,97,78,50,29.97,29.87,3,0,7,0.01
2012-8-7,83,69,56,67,61,55,97,79,48,30.00,29.91,2,0,7,0.00
2012-8-8,88,72,56,71,63,55,97,77,42,29.97,29.90,2,0,5,0.00
2012-8-9,88,74,62,73,68,61,97,85,47,29.94,29.85,2,0,6,0.04
2012-8-10,82,73,68,74,71,67,97,93,72,29.91,29.76,2,0,9,1.35
2012-8-11,80,71,65,74,69,64,98,95,79,29.90,29.77,3,0,9,0.34
2012-8-12,82,73,68,77,71,67,98,93,78,29.91,29.81,2,0,8,0.12
2012-8-13,84,71,62,70,65,61,98,83,54,29.92,29.86,2,0,6,0.00
2012-8-14,81,70,59,72,65,58,97,85,59,29.94,29.87,1,0,6,0.00
2012-8-15,81,71,64,72,67,62,97,89,64,29.90,29.81,2,0,5,0.24
2012-8-16,77,68,62,69,65,61,97,92,64,29.85,29.76,1,0,3,0.66
2012-8-17,84,71,57,73,65,56,97,85,61,29.83,29.71,3,0,12,0.20
2012-8-18,77,68,60,68,64,58,97,89,60,29.88,29.79,1,0,5,0.08
2012-8-19,74,64,52,64,58,51,97,83,59,29.96,29.88,2,0,5,0.00
2012-8-20,78,65,53,65,59,52,97,82,53,29.92,29.81,2,0,5,0.00
2012-8-21,80,68,59,65,60,55,97,79,44,30.07,29.88,2,0,7,0.00
2012-8-22,82,66,52,66,58,51,97,79,43,30.14,30.06,2,0,7,0.00
2012-8-23,83,68,54,70,62,53,97,83,51,30.12,30.04,1,0,5,0.00
2012-8-24,82,69,57,70,63,56,97,83,58,30.20,30.10,3,0,7,0.00
2012-8-25,81,69,61,69,63,58,97,83,53,30.31,30.20,3,0,9,0.00
2012-8-26,82,68,55,68,61,54,97,81,54,30.33,30.20,2,0,7,0.00
2012-8-27,84,69,55,72,63,54,97,83,59,30.20,29.89,2,0,9,0.00
2012-8-28,83,73,65,72,67,58,97,84,60,29.89,29.67,3,0,9,0.47
2012-8-29,74,63,52,58,52,44,94,72,42,29.96,29.86,2,0,7,0.00
2012-8-30,79,63,47,63,55,46,97,77,46,30.02,29.91,2,0,7,0.00
2012-8-31,86,69,52,68,60,51,97,76,42,29.93,29.76,2,0,6,0.00
2012-9-1,76,68,58,66,60,55,96,79,56,30.11,29.83,5,0,12,0.00
2012-9-2,74,64,57,64,58,55,97,84,58,30.15,30.05,2,0,8,0.03
2012-9-3,76,64,55,63,58,53,97,83,56,30.23,30.12,2,0,8,0.00
2012-9-4,67,64,60,66,63,58,97,95,88,30.14,29.85,1,0,3,0.26
2012-9-5,77,72,66,74,70,65,97,91,75,29.84,29.66,2,0,10,0.22
2012-9-6,78,70,65,71,66,63,97,89,69,29.89,29.81,1,0,6,0.00
2012-9-7,82,71,61,71,65,60,97,85,48,29.91,29.83,1,0,5,0.00
2012-9-8,81,73,63,73,69,62,97,89,68,29.87,29.58,6,1,17,0.35
2012-9-9,71,62,53,62,58,52,97,87,62,29.84,29.67,2,0,8,0.01
2012-9-10,64,57,49,53,50,45,97,78,55,30.04,29.83,6,0,16,0.00
2012-9-11,70,55,41,56,46,40,97,77,39,30.25,30.03,2,0,7,0.00
2012-9-12,75,58,42,60,50,40,97,80,44,30.34,30.25,2,0,5,0.00
2012-9-13,80,62,47,66,56,46,97,83,56,30.34,30.22,2,0,6,0.00
2012-9-14,80,64,52,67,59,50,97,84,57,30.24,30.04,2,0,7,0.00
2012-9-15,70,61,47,61,54,45,97,79,49,30.04,29.97,3,0,12,0.02
2012-9-16,68,52,40,51,43,38,97,75,35,30.08,29.97,3,0,9,0.00
2012-9-17,73,54,37,59,47,35,97,80,46,30.09,29.99,2,0,6,0.00
2012-9-18,72,62,48,69,59,47,97,91,83,30.03,29.64,6,1,20,0.25
2012-9-19,70,61,45,68,53,43,97,80,42,30.19,29.65,3,0,10,0.51
2012-9-20,64,49,38,51,44,37,97,83,55,30.28,30.15,2,0,9,0.00
2012-9-21,63,50,40,55,47,38,97,89,69,30.17,30.06,3,0,8,0.00
2012-9-22,69,59,48,63,56,47,97,91,73,30.05,29.80,2,0,7,0.01
2012-9-23,67,59,44,61,52,42,97,79,44,30.08,29.77,2,0,9,0.11
2012-9-24,64,49,36,49,42,35,97,81,44,30.12,30.04,2,0,7,0.00
2012-9-25,69,51,34,54,44,33,97,80,45,30.15,30.08,3,0,13,0.00
2012-9-26,70,62,54,64,59,52,97,90,77,30.11,29.96,2,0,9,0.02
2012-9-27,65,57,43,60,50,42,97,78,46,30.25,29.97,3,0,9,0.01
2012-9-28,53,49,41,53,48,39,97,97,94,30.25,30.00,1,0,7,1.56
2012-9-29,56,53,50,54,52,49,97,96,91,30.00,29.87,1,0,7,0.06
2012-9-30,58,54,49,57,53,48,97,97,93,29.91,29.67,1,0,4,0.09
2012-10-1,62,54,48,58,52,47,98,93,76,29.91,29.66,3,0,12,0.01
2012-10-2,66,58,51,62,56,50,97,94,75,30.05,29.91,1,0,3,0.12
2012-10-3,63,60,59,62,60,58,98,97,96,30.15,30.03,1,0,3,0.11
2012-10-4,61,59,58,60,59,58,98,98,97,30.17,30.02,1,0,7,0.19
2012-10-5,73,62,55,64,59,54,98,91,59,30.02,29.88,2,0,6,0.00
2012-10-6,75,60,50,64,56,46,98,87,65,29.90,29.65,16,0,20,0.00
2012-10-7,56,49,40,48,43,38,97,83,58,30.05,29.90,7,0,10,0.15
2012-10-8,54,46,37,46,43,36,97,88,63,30.31,30.04,6,0,12,0.01
2012-10-9,56,50,42,50,46,41,97,89,74,30.31,30.14,16,1,26,0.00
2012-10-10,59,52,47,58,51,45,97,95,90,30.14,29.70,9,0,18,0.25
2012-10-11,57,48,36,50,40,34,97,74,43,30.11,29.77,21,3,32,0.00
2012-10-12,52,43,34,43,35,25,97,76,42,30.35,29.97,24,2,24,0.05
2012-10-13,52,38,26,36,28,24,95,71,35,30.45,30.30,15,2,22,0.00
2012-10-14,59,49,41,56,47,36,97,94,77,30.30,29.90,5,0,8,0.50
2012-10-15,73,60,48,65,58,47,98,92,70,29.90,29.58,13,1,18,0.17
2012-10-16,59,50,34,58,44,32,97,81,53,29.88,29.55,23,4,28,0.05
2012-10-17,60,43,29,45,35,28,97,79,39,30.00,29.88,13,1,16,0.00
2012-10-18,64,47,34,50,42,33,97,83,47,30.12,30.00,13,1,16,0.00
2012-10-19,65,57,44,62,55,42,97,95,80,30.09,29.72,21,3,28,0.35
2012-10-20,73,63,52,66,59,46,98,87,51,29.74,29.58,8,0,14,0.45
2012-10-21,62,52,40,46,43,39,97,75,47,29.85,29.71,17,2,24,0.00
2012-10-22,64,50,40,46,42,38,96,77,45,29.99,29.85,22,3,26,0.00
2012-10-23,62,48,38,49,42,36,97,80,49,30.11,29.98,14,1,18,0.00
2012-10-24,58,45,34,44,38,32,97,78,48,30.21,30.11,8,0,10,0.00
2012-10-25,63,47,36,48,41,35,97,82,37,30.30,30.21,10,1,14,0.00
2012-10-26,65,50,39,56,47,38,97,89,70,30.25,30.10,10,0,12,0.00
2012-10-27,65,52,41,56,48,40,97,88,70,30.12,29.99,15,0,15,0.00
2012-10-28,54,51,49,51,48,44,96,88,74,30.02,29.81,21,3,32,0.04
2012-10-29,61,55,49,60,54,48,96,96,95,29.80,29.24,48,11,62,2.13
2012-10-30,66,60,52,61,58,51,97,93,76,29.60,29.31,6,1,16,0.54
2012-10-31,56,52,46,55,49,44,98,91,76,29.54,29.45,2,0,12,0.01
2012-11-1,49,45,41,44,42,39,96,89,76,29.54,29.50,1,0,5,0.00
2012-11-2,52,46,40,43,40,36,96,80,61,29.59,29.51,3,0,10,0.00
2012-11-3,51,44,37,38,36,33,93,74,58,29.78,29.58,6,1,12,0.00
2012-11-4,50,42,37,37,33,29,85,72,58,29.94,29.77,6,1,17,0.00
2012-11-5,43,36,27,29,24,19,76,61,45,30.12,29.94,5,1,12,0.00
2012-11-6,41,28,20,23,19,16,93,72,37,30.23,30.12,3,0,7,0.00
2012-11-7,37,33,23,29,20,16,90,61,42,30.20,29.81,8,3,15,0.01
2012-11-8,38,35,32,36,33,29,95,92,82,29.81,29.67,7,2,13,0.72
2012-11-9,50,40,33,34,30,24,88,69,36,30.07,29.76,7,1,14,0.00
2012-11-10,52,38,30,36,30,26,96,76,38,30.45,30.07,5,0,9,0.00
2012-11-11,61,44,29,46,38,27,94,82,54,30.49,30.38,3,0,8,0.00
2012-11-12,67,52,36,58,47,34,97,83,54,30.44,30.20,5,0,13,0.00
2012-11-13,62,48,34,59,45,31,95,91,79,30.42,30.08,3,0,10,0.27
2012-11-14,45,35,27,31,27,24,96,76,44,30.55,30.42,6,0,9,0.00
2012-11-15,44,33,25,31,27,23,94,80,53,30.49,30.31,6,0,9,0.00
2012-11-16,43,34,27,32,29,25,95,83,61,30.43,30.29,2,0,5,0.00
2012-11-17,46,32,24,33,27,22,96,84,55,30.66,30.43,2,0,4,0.00
2012-11-18,46,30,21,32,25,19,96,82,50,30.73,30.64,3,0,9,0.00
2012-11-19,47,31,21,35,27,20,95,85,63,30.63,30.28,2,0,6,0.00
2012-11-20,48,32,21,33,26,19,96,81,45,30.28,30.13,2,0,6,0.00
2012-11-21,50,35,29,39,31,27,95,85,64,30.27,30.17,3,0,7,0.00
2012-11-22,53,38,29,42,34,27,96,86,61,30.28,30.12,3,0,7,0.00
2012-11-23,56,39,26,43,35,25,97,87,60,30.12,29.62,3,0,7,0.00
2012-11-24,44,40,31,42,28,18,96,65,42,29.62,29.50,7,1,21,0.01
2012-11-25,38,32,27,24,18,11,85,58,34,29.83,29.62,6,1,18,0.00
2012-11-26,44,33,25,29,24,21,89,72,44,30.20,29.83,7,0,16,0.00
2012-11-27,36,33,25,34,31,22,95,91,83,30.31,30.24,1,0,4,0.04
2012-11-28,37,31,23,31,26,21,94,81,59,30.24,30.10,3,0,5,0.00
2012-11-29,42,33,22,27,23,20,94,70,51,30.24,30.11,5,0,13,0.00
2012-11-30,38,29,26,28,12,2,79,49,30,30.57,30.19,5,1,12,0.00
2012-12-1,30,27,25,26,20,6,93,76,39,30.65,30.51,2,0,5,0.02
2012-12-2,45,35,27,44,34,26,97,96,93,30.51,30.01,1,0,5,0.06
2012-12-3,55,42,29,48,40,28,97,90,68,30.30,29.99,5,0,9,0.00
2012-12-4,53,40,28,52,39,27,97,96,95,30.31,29.93,1,0,5,0.00
2012-12-5,55,47,31,54,39,17,97,74,54,30.13,29.79,6,2,16,0.04
2012-12-6,38,30,20,22,19,18,90,66,46,30.31,30.13,5,1,12,0.00
2012-12-7,42,31,20,36,28,18,96,89,73,30.29,30.03,1,0,4,0.04
2012-12-8,40,38,36,39,38,35,97,96,96,30.03,29.85,1,0,4,0.23
2012-12-9,44,36,32,39,33,30,97,89,59,30.30,29.93,3,0,8,0.06
2012-12-10,47,43,35,47,42,34,97,97,96,30.16,29.46,1,0,7,0.29
2012-12-11,44,39,30,43,36,27,97,89,66,30.13,29.53,5,0,13,0.02
2012-12-12,37,28,23,28,24,21,95,86,65,30.42,30.13,2,0,6,0.00
2012-12-13,41,27,19,30,23,17,96,86,59,30.46,30.27,2,0,4,0.00
2012-12-14,46,30,18,30,23,16,96,80,41,30.27,30.03,5,0,13,0.00
2012-12-15,39,29,23,26,22,17,95,75,41,30.34,30.15,3,0,8,0.00
2012-12-16,27,26,25,24,20,16,92,79,66,30.34,30.11,3,0,7,0.07
2012-12-17,34,30,25,33,28,23,96,93,91,30.11,29.83,3,0,8,0.11
2012-12-18,45,39,34,44,38,33,97,97,96,29.83,29.39,3,0,12,0.62
2012-12-19,44,39,33,39,34,30,97,84,69,30.02,29.42,7,1,17,0.03
2012-12-20,39,33,26,32,29,24,97,87,69,30.21,30.02,3,0,8,0.00
2012-12-21,52,42,34,50,40,32,96,93,80,30.04,29.04,9,2,31,0.61
2012-12-22,38,32,28,35,25,16,96,74,56,29.61,29.19,6,1,15,0.00
2012-12-23,38,30,24,25,20,15,92,68,47,29.83,29.61,6,1,18,0.00
2012-12-24,37,30,25,25,21,17,89,72,45,30.05,29.83,5,0,12,0.00
2012-12-25,32,28,24,27,23,16,88,80,70,30.22,29.98,3,0,7,0.00
2012-12-26,33,27,19,28,19,12,94,73,48,30.32,29.95,3,0,9,0.00
2012-12-27,34,32,29,33,30,27,96,94,88,29.95,29.31,9,2,20,0.04
2012-12-28,34,29,26,27,23,20,89,79,66,29.99,29.62,7,2,17,0.01
2012-12-29,30,26,20,28,24,18,95,90,76,29.99,29.44,3,0,8,0.00
2012-12-30,28,24,18,26,18,9,94,76,60,29.94,29.45,9,2,15,0.00
2012-12-31,34,23,9,26,17,6,93,81,65,30.00,29.73,5,0,12,0.00
2013-1-1,34,28,16,28,16,4,83,62,46,29.91,29.67,8,2,17,0.00